Location: Milano
(45.4670°N, 9.2000°E)
Time: 21:17:36
(UTC+02:00)

ISS - Pass Details

Date: 15 May 2021
Orbit: 417 x 422 km, 51.6° (Epoch: 14 June)

Event Time Altitude Azimuth Distance (km) Brightness Sun altitude
Rises 23:36:40 0° 259° (W) 2,360 0.3 -21.3°
Reaches altitude 10° 23:38:49 10° 266° (W) 1,499 -0.7 -21.5°
Maximum altitude 23:42:04 44° 341° (NNW) 594 -2.6 -21.8°
Drops below altitude 10° 23:45:19 10° 55° (NE) 1,506 -0.8 -22.0°
Sets 23:47:30 0° 62° (ENE) 2,374 0.1 -22.1°
